Location: Buchberg
(46.9333°N, 15.8500°E)
Time: 04:37:34
(UTC+00:00)

Cosmos 2100 Rocket - Pass Details

Date: 14 July 2020
Orbit: 955 x 1002 km, 82.9° (Epoch: 11 August)

Event Time Altitude Azimuth Distance (km) Brightness Sun altitude
Exits shadow 00:45:06 28° 208° (SSW) 1,755 4.7 -17.6°
Maximum altitude 00:48:30 64° 282° (WNW) 1,079 4.1 -17.4°
Drops below altitude 10° 00:54:42 10° 3° (N) 2,725 7.4 -16.9°
Sets 00:57:15 0° 7° (N) 3,669 8.4 -16.7°
